This is the latest recevied weather packets stored in our database for station/object LU5DTF-1. If no packets are shown the sender has not sent any weather packets the latest 1 day(s).
| Time | Temp. | Humidity | Pressure | Rain* | Wind** | Luminosity | Snow |
|---|---|---|---|---|---|---|---|
| 1777996201 | 19.44° C | 63% | 1013.7 hPa | 0 mm | 0 m/s | - | - |
| 1777995901 | 19.44° C | 63% | 1013.6 hPa | 0 mm | 0 m/s | - | - |
| 1777995601 | 18.89° C | 65% | 1013.5 hPa | 0 mm | 0.45 m/s, 79° | - | - |
| 1777995301 | 19.44° C | 64% | 1013.3 hPa | 0 mm | 0.89 m/s, 89° | - | - |
| 1777995001 | 19.44° C | 62% | 1013.3 hPa | 0 mm | 0.89 m/s, 79° | - | - |
| 1777994701 | 20° C | 60% | 1013.2 hPa | 0 mm | 0.89 m/s, 292° | - | - |
| 1777994401 | 20° C | 59% | 1013.5 hPa | 0 mm | 1.34 m/s, 293° | - | - |
| 1777994101 | 20° C | 60% | 1013.5 hPa | 0 mm | 1.34 m/s, 303° | - | - |
| 1777993802 | 19.44° C | 61% | 1013.5 hPa | 0 mm | 1.34 m/s, 307° | - | - |
| 1777992903 | 18.89° C | 62% | 1013.4 hPa | 0 mm | 1.34 m/s, 290° | - | - |
| 1777992603 | 18.89° C | 62% | 1013.5 hPa | 0 mm | 1.79 m/s, 286° | - | - |
| 1777992303 | 18.89° C | 62% | 1013.5 hPa | 0 mm | 1.79 m/s, 282° | - | - |
| 1777992003 | 18.89° C | 62% | 1013.6 hPa | 0 mm | 1.79 m/s, 281° | - | - |
| 1777991703 | 18.33° C | 62% | 1013.5 hPa | 0 mm | 1.79 m/s, 277° | - | - |
| 1777991403 | 18.33° C | 62% | 1013.7 hPa | 0 mm | 1.34 m/s, 272° | - | - |
| 1777991103 | 18.33° C | 62% | 1013.4 hPa | 0 mm | 1.34 m/s, 281° | - | - |
| 1777990803 | 18.33° C | 62% | 1013.4 hPa | 0 mm | 0.89 m/s, 295° | - | - |
| 1777990503 | 18.33° C | 62% | 1013.4 hPa | 0 mm | 0.45 m/s, 306° | - | - |
| 1777990203 | 18.33° C | 63% | 1013.2 hPa | 0 mm | 0.89 m/s, 303° | - | - |
| 1777989903 | 17.78° C | 63% | 1013.2 hPa | 0 mm | 0.89 m/s, 304° | - | - |
| 1777989603 | 17.78° C | 63% | 1013.3 hPa | 0 mm | 0.89 m/s, 305° | - | - |
| 1777989303 | 17.78° C | 63% | 1013.4 hPa | 0 mm | 1.34 m/s, 301° | - | - |
| 1777989003 | 17.78° C | 64% | 1013.4 hPa | 0 mm | 1.34 m/s, 300° | - | - |
| 1777988703 | 17.22° C | 64% | 1013.3 hPa | 0 mm | 1.34 m/s, 301° | - | - |
| 1777988403 | 17.22° C | 65% | 1013.2 hPa | 0 mm | 1.34 m/s, 306° | - | - |
* Rain latest hour (hover to see other rain measurements)
** Current wind speed in m/s (hover to see current wind gust speed)